| time (UTC) | temp F | wind direction | speed MPH | gust MPH | rain 1hr in | rain 24hr in | rain mn in | humidity % | barometer mb |
| 20260905133049 | 71 | 262 | 0.0 | 0.0 | 0.00 | 0.16 | 0.00 | 97 | 1013.1 |
| 20260905131551 | 71 | 262 | 0.0 | 0.0 | 0.00 | 0.16 | 0.00 | 97 | 1013.4 |
| 20260905130046 | 70 | 262 | 0.0 | 0.0 | 0.00 | 0.16 | 0.00 | 97 | 1013.3 |
| 20260905124545 | 70 | 262 | 0.0 | 1.0 | 0.00 | 0.16 | 0.00 | 97 | 1013.0 |
| 20260905123043 | 70 | 261 | 0.0 | 0.0 | 0.00 | 0.16 | 0.00 | 97 | 1013.2 |
| 20260905121543 | 70 | 261 | 0.0 | 0.0 | 0.00 | 0.16 | 0.00 | 97 | 1013.2 |
| 20260905120045 | 69 | 261 | 0.0 | 0.0 | 0.00 | 0.16 | 0.00 | 97 | 1012.8 |
| 20260905114543 | 69 | 261 | 0.0 | 0.0 | 0.00 | 0.16 | 0.00 | 97 | 1012.9 |
| 20260905113041 | 69 | 261 | 0.0 | 0.0 | 0.00 | 0.16 | 0.00 | 97 | 1012.9 |
| 20260905111545 | 69 | 261 | 0.0 | 0.0 | 0.00 | 0.16 | 0.00 | 97 | 1013.0 |
| 20260905110040 | 69 | 261 | 0.0 | 0.0 | 0.00 | 0.16 | 0.00 | 96 | 1013.2 |
| 20260905104547 | 69 | 261 | 0.0 | 0.0 | 0.00 | 0.16 | 0.00 | 96 | 1013.2 |
| 20260905103040 | 69 | 261 | 0.0 | 0.0 | 0.00 | 0.16 | 0.00 | 96 | 1013.7 |
| 20260905101540 | 68 | 261 | 0.0 | 0.0 | 0.00 | 0.16 | 0.00 | 96 | 1013.8 |
| 20260905100039 | 68 | 261 | 0.0 | 0.0 | 0.00 | 0.16 | 0.00 | 96 | 1013.9 |
| 20260905094538 | 68 | 261 | 0.0 | 0.0 | 0.00 | 0.16 | 0.00 | 96 | 1013.6 |
| 20260905093037 | 68 | 261 | 0.0 | 0.0 | 0.00 | 0.16 | 0.00 | 96 | 1013.0 |
| 20260905091544 | 68 | 260 | 0.0 | 0.0 | 0.00 | 0.16 | 0.00 | 96 | 1012.7 |
| 20260905090036 | 68 | 261 | 0.0 | 0.0 | 0.00 | 0.16 | 0.00 | 96 | 1012.6 |
| 20260905084544 | 68 | 261 | 0.0 | 0.0 | 0.00 | 0.16 | 0.00 | 96 | 1012.6 |
| 20260905083034 | 68 | 261 | 0.0 | 0.0 | 0.00 | 0.16 | 0.00 | 96 | 1012.4 |
| 20260905081534 | 68 | 261 | 0.0 | 0.0 | 0.00 | 0.16 | 0.00 | 96 | 1011.8 |
| 20260905080040 | 68 | 260 | 0.0 | 0.0 | 0.00 | 0.16 | 0.00 | 96 | 1012.1 |
| 20260905074532 | 68 | 260 | 0.0 | 0.0 | 0.00 | 0.16 | 0.00 | 96 | 1012.4 |
| 20260905073035 | 68 | 261 | 0.0 | 0.0 | 0.00 | 0.16 | 0.00 | 96 | 1012.2 |
| 20260905071531 | 69 | 261 | 0.0 | 0.0 | 0.00 | 0.16 | 0.00 | 96 | 1012.5 |
| 20260905070058 | 69 | 261 | 0.0 | 0.0 | 0.00 | 0.16 | 0.00 | 96 | 1012.2 |
| 20260905064526 | 69 | 261 | 0.0 | 0.0 | 0.00 | 0.16 | 0.00 | 96 | 1012.4 |
| 20260905063025 | 69 | 260 | 0.0 | 0.0 | 0.00 | 0.16 | 0.00 | 95 | 1012.5 |
| 20260905061522 | 70 | 261 | 0.0 | 0.0 | 0.00 | 0.16 | 0.00 | 96 | 1012.8 |
| 20260905060019 | 70 | 260 | 0.0 | 0.0 | 0.00 | 0.16 | 0.00 | 96 | 1013.2 |
| 20260905054539 | 70 | 261 | 0.0 | 0.0 | 0.00 | 0.16 | 0.00 | 96 | 1013.3 |
| 20260905053016 | 70 | 260 | 0.0 | 0.0 | 0.00 | 0.16 | 0.00 | 96 | 1013.5 |
| 20260905051533 | 70 | 261 | 0.0 | 0.0 | 0.00 | 0.16 | 0.00 | 95 | 1013.6 |
| 20260905050013 | 70 | 260 | 0.0 | 0.0 | 0.00 | 0.16 | 0.00 | 95 | 1013.7 |
| 20260905044518 | 70 | 261 | 0.0 | 0.0 | 0.00 | 0.16 | 0.00 | 95 | 1013.8 |
| 20260905043012 | 70 | 261 | 0.0 | 0.0 | 0.00 | 0.16 | 0.00 | 96 | 1013.8 |
| 20260905041510 | 70 | 261 | 0.0 | 0.0 | 0.00 | 0.16 | 0.00 | 95 | 1013.7 |
| 20260905040008 | 70 | 261 | 0.0 | 0.0 | 0.00 | 0.17 | 0.16 | 95 | 1013.9 |
| 20260905034508 | 70 | 260 | 0.0 | 0.0 | 0.00 | 0.17 | 0.16 | 95 | 1013.8 |
| 20260905033014 | 71 | 261 | 0.0 | 0.0 | 0.00 | 0.17 | 0.16 | 95 | 1013.8 |
| 20260905031510 | 71 | 260 | 0.0 | 0.0 | 0.00 | 0.17 | 0.16 | 95 | 1013.7 |
| 20260905030007 | 71 | 261 | 0.0 | 0.0 | 0.00 | 0.21 | 0.16 | 95 | 1013.7 |
| 20260905024506 | 71 | 260 | 0.0 | 0.0 | 0.00 | 0.21 | 0.16 | 95 | 1013.6 |
| 20260905023006 | 71 | 261 | 0.0 | 0.0 | 0.00 | 0.21 | 0.16 | 95 | 1013.9 |
| 20260905021505 | 72 | 260 | 0.0 | 0.0 | 0.00 | 0.21 | 0.16 | 95 | 1013.8 |
| 20260905020011 | 72 | 261 | 0.0 | 0.0 | 0.00 | 0.21 | 0.16 | 95 | 1013.7 |
| 20260905014504 | 72 | 260 | 0.0 | 0.0 | 0.00 | 0.21 | 0.16 | 94 | 1013.7 |
| 20260905013003 | 72 | 261 | 0.0 | 0.0 | 0.00 | 0.21 | 0.16 | 94 | 1013.8 |
| 20260905011506 | 72 | 260 | 0.0 | 0.0 | 0.00 | 0.21 | 0.16 | 94 | 1014.0 |
| 20260905010003 | 72 | 261 | 0.0 | 0.0 | 0.00 | 0.21 | 0.16 | 94 | 1013.7 |
| 20260905004503 | 73 | 261 | 0.0 | 0.0 | 0.00 | 0.21 | 0.16 | 94 | 1013.7 |
| 20260905003005 | 73 | 261 | 0.0 | 0.0 | 0.00 | 0.21 | 0.16 | 94 | 1013.6 |
| 20260905001502 | 73 | 260 | 0.0 | 0.0 | 0.00 | 0.21 | 0.16 | 94 | 1013.9 |
| 20260905000001 | 74 | 261 | 0.0 | 0.0 | 0.00 | 0.28 | 0.16 | 93 | 1013.5 |
| 20260904234500 | 74 | 261 | 0.0 | 0.0 | 0.00 | 0.28 | 0.16 | 93 | 1013.6 |
| 20260904233100 | 75 | 261 | 0.0 | 0.0 | 0.00 | 0.28 | 0.16 | 93 | 1013.8 |
| 20260904231600 | 75 | 261 | 0.0 | 0.0 | 0.00 | 0.28 | 0.16 | 93 | 1014.0 |
| 20260904230109 | 75 | 260 | 0.0 | 0.0 | 0.00 | 1.13 | 0.16 | 93 | 1013.4 |
| 20260904224609 | 76 | 260 | 0.0 | 0.0 | 0.00 | 1.13 | 0.16 | 93 | 1013.7 |
| 20260904223057 | 75 | 261 | 0.0 | 0.0 | 0.00 | 1.13 | 0.16 | 92 | 1013.7 |
| 20260904221557 | 76 | 261 | 0.0 | 0.0 | 0.00 | 1.13 | 0.16 | 92 | 1013.4 |
| 20260904220058 | 76 | 260 | 0.0 | 0.0 | 0.00 | 1.29 | 0.16 | 91 | 1013.2 |
| 20260904214558 | 76 | 260 | 0.0 | 0.0 | 0.00 | 1.29 | 0.16 | 91 | 1013.0 |
| 20260904213103 | 76 | 260 | 0.0 | 0.0 | 0.00 | 1.29 | 0.16 | 91 | 1012.7 |
| 20260904211600 | 76 | 261 | 0.0 | 0.0 | 0.00 | 1.29 | 0.16 | 92 | 1012.5 |
| 20260904210107 | 76 | 261 | 0.0 | 0.0 | 0.00 | 1.29 | 0.16 | 92 | 1012.4 |
| 20260904204554 | 76 | 261 | 0.0 | 0.0 | 0.00 | 1.29 | 0.16 | 92 | 1011.9 |
| 20260904203051 | 75 | 260 | 0.0 | 0.0 | 0.00 | 1.29 | 0.16 | 92 | 1011.9 |
| 20260904201548 | 75 | 261 | 0.0 | 0.0 | 0.00 | 1.29 | 0.16 | 92 | 1012.2 |
| 20260904200046 | 75 | 261 | 0.0 | 0.0 | 0.00 | 1.29 | 0.16 | 93 | 1012.7 |
| 20260904194543 | 74 | 265 | 0.0 | 0.0 | 0.00 | 1.29 | 0.16 | 94 | 1013.4 |
| 20260904193042 | 74 | 270 | 0.0 | 0.0 | 0.00 | 1.29 | 0.16 | 95 | 1013.6 |
| 20260904191538 | 74 | 270 | 0.0 | 0.0 | 0.00 | 1.29 | 0.16 | 96 | 1013.6 |
| 20260904190038 | 73 | 270 | 0.0 | 0.0 | 0.01 | 1.29 | 0.16 | 96 | 1014.0 |
| 20260904184537 | 73 | 270 | 0.0 | 0.0 | 0.01 | 1.29 | 0.16 | 96 | 1014.1 |
| 20260904183035 | 73 | 269 | 0.0 | 0.0 | 0.01 | 1.29 | 0.16 | 97 | 1013.9 |
| 20260904181532 | 72 | 269 | 0.0 | 2.0 | 0.01 | 1.29 | 0.16 | 96 | 1014.3 |
| 20260904180033 | 72 | 245 | 0.0 | 0.0 | 0.00 | 1.28 | 0.15 | 96 | 1014.7 |
| 20260904174532 | 73 | 253 | 0.0 | 5.0 | 0.01 | 1.28 | 0.15 | 96 | 1016.1 |
| 20260904173033 | 73 | 225 | 1.0 | 3.0 | 0.01 | 1.28 | 0.15 | 96 | 1016.2 |
| 20260904171538 | 72 | 255 | 0.0 | 5.0 | 0.03 | 1.28 | 0.15 | 97 | 1015.9 |
| 20260904170027 | 72 | 294 | 0.0 | 1.0 | 0.04 | 1.28 | 0.15 | 97 | 1016.0 |
| 20260904164530 | 72 | 311 | 0.0 | 0.0 | 0.04 | 1.27 | 0.14 | 97 | 1016.2 |
| 20260904163027 | 71 | 44 | 0.0 | 2.0 | 0.04 | 1.27 | 0.14 | 97 | 1016.0 |
| 20260904161525 | 71 | 313 | 0.0 | 0.0 | 0.02 | 1.25 | 0.12 | 97 | 1016.2 |
| 20260904160042 | 71 | 349 | 0.0 | 1.0 | 0.01 | 1.24 | 0.11 | 96 | 1016.4 |
| 20260904154525 | 72 | 281 | 0.0 | 4.0 | 0.00 | 1.23 | 0.10 | 97 | 1016.5 |
| 20260904153022 | 72 | 285 | 0.0 | 1.0 | 0.00 | 1.23 | 0.10 | 97 | 1016.1 |
| 20260904151525 | 71 | 290 | 0.0 | 0.0 | 0.02 | 1.23 | 0.10 | 97 | 1015.0 |
| 20260904150032 | 71 | 289 | 0.0 | 0.0 | 0.05 | 1.23 | 0.10 | 97 | 1014.7 |
| 20260904144515 | 70 | 289 | 0.0 | 0.0 | 0.06 | 1.23 | 0.10 | 97 | 1015.3 |
| 20260904143013 | 70 | 289 | 0.0 | 0.0 | 0.08 | 1.23 | 0.10 | 97 | 1015.5 |
| 20260904141521 | 69 | 289 | 0.0 | 0.0 | 0.07 | 1.20 | 0.07 | 97 | 1015.5 |
| 20260904140023 | 69 | 289 | 0.0 | 0.0 | 0.05 | 1.18 | 0.05 | 96 | 1015.6 |
| 20260904134511 | 70 | 289 | 0.0 | 0.0 | 0.04 | 1.17 | 0.04 | 96 | 1015.7 |